Location: Keppel Henge
(44.7900°N, 80.9447°W)
Time: 19:00:09
(UTC-04:00)

N. Korean satellite - Pass Details

Date: 13 October 2017
Orbit: 459 x 517 km, 97.2° (Epoch: 22 October)

Event Time Altitude Azimuth Distance (km) Brightness Sun altitude
Rises 19:47:06 0° 182° (S) 2,551 10.2 -12.3°
Reaches altitude 10° 19:49:15 10° 190° (S) 1,665 9.4 -12.7°
Maximum altitude 19:52:39 41° 261° (W) 709 8.0 -13.3°
Drops below altitude 10° 19:56:01 10° 334° (NNW) 1,649 9.6 -13.9°
Sets 19:58:09 0° 341° (NNW) 2,523 10.5 -14.3°
